TimePST,TemperatureF,Dew PointF,Humidity,Sea Level PressureIn,VisibilityMPH,Wind Direction,Wind SpeedMPH,Gust SpeedMPH,PrecipitationIn,Events,Conditions,WindDirDegrees,DateUTC
12:54 AM,48.0,37.9,68,29.92,9.0,North,3.5,-,N/A,,Clear,360,2013-12-03 08:54:00
1:54 AM,45.0,39.0,80,29.91,6.0,NNW,3.5,-,N/A,,Haze,330,2013-12-03 09:54:00
2:54 AM,44.1,39.0,82,29.91,6.0,SW,3.5,-,N/A,,Haze,230,2013-12-03 10:54:00
3:54 AM,44.1,39.0,82,29.91,4.0,SSE,4.6,-,N/A,,Haze,150,2013-12-03 11:54:00
4:54 AM,44.1,39.0,82,29.91,6.0,ESE,3.5,-,N/A,,Haze,110,2013-12-03 12:54:00
5:54 AM,44.1,39.0,82,29.91,7.0,SE,5.8,-,N/A,,Clear,130,2013-12-03 13:54:00
6:54 AM,45.0,39.0,80,29.91,6.0,ESE,4.6,-,N/A,,Haze,110,2013-12-03 14:54:00
7:54 AM,48.0,39.9,74,29.90,4.0,ESE,6.9,-,N/A,,Haze,110,2013-12-03 15:54:00
8:54 AM,50.0,41.0,71,29.90,3.0,SE,5.8,-,N/A,,Haze,130,2013-12-03 16:54:00
9:54 AM,55.0,43.0,64,29.87,3.0,ESE,4.6,-,N/A,,Haze,110,2013-12-03 17:54:00
10:54 AM,59.0,43.0,55,29.85,3.0,Calm,Calm,-,N/A,,Haze,0,2013-12-03 18:54:00
11:54 AM,61.0,43.0,52,29.81,4.0,Calm,Calm,-,N/A,,Haze,0,2013-12-03 19:54:00
12:54 PM,64.0,46.0,52,29.77,7.0,Calm,Calm,-,N/A,,Mostly Cloudy,0,2013-12-03 20:54:00
1:54 PM,64.0,46.0,52,29.75,9.0,NNW,10.4,-,N/A,,Overcast,330,2013-12-03 21:54:00
2:54 PM,63.0,46.9,56,29.73,10.0,NNW,9.2,-,N/A,,Clear,330,2013-12-03 22:54:00
3:54 PM,61.0,46.9,60,29.73,9.0,North,9.2,-,N/A,,Overcast,350,2013-12-03 23:54:00
4:54 PM,59.0,48.0,67,29.73,7.0,North,16.1,-,N/A,,Overcast,350,2013-12-04 00:54:00
5:47 PM,55.0,46.0,72,29.74,7.0,North,19.6,-,N/A,,Overcast,350,2013-12-04 01:47:00
5:54 PM,54.0,46.0,75,29.74,7.0,North,21.9,28.8,N/A,,Overcast,350,2013-12-04 01:54:00
6:04 PM,54.0,46.0,75,29.75,6.0,North,21.9,31.1,N/A,,Haze,360,2013-12-04 02:04:00
6:26 PM,53.1,46.0,77,29.76,6.0,NNW,17.3,-,0.00,Rain,Light Rain,340,2013-12-04 02:26:00
6:54 PM,52.0,41.0,66,29.78,8.0,NW,17.3,-,0.00,,Overcast,320,2013-12-04 02:54:00
7:54 PM,50.0,41.0,71,29.81,10.0,NW,15.0,-,0.00,,Overcast,310,2013-12-04 03:54:00
8:54 PM,50.0,36.0,59,29.83,10.0,NW,15.0,-,N/A,,Overcast,310,2013-12-04 04:54:00
9:54 PM,48.9,35.1,59,29.86,10.0,NW,12.7,-,N/A,,Overcast,310,2013-12-04 05:54:00
10:54 PM,45.0,32.0,60,29.88,10.0,WNW,6.9,-,N/A,,Clear,290,2013-12-04 06:54:00
11:54 PM,43.0,32.0,65,29.89,10.0,Calm,Calm,-,N/A,,Scattered Clouds,0,2013-12-04 07:54:00